Location: *
(37.5724°S, 58.0067°E)
Time: 10:16:47
(UTC+00:00)

Genesis I - Pass Details

Date: 19 January 2021
Orbit: 488 x 532 km, 64.5° (Epoch: 05 March)

Event Time Altitude Azimuth Distance (km) Brightness Sun altitude
Exits shadow 21:29:21 13° 103° (ESE) 1,607 6.0 -30.0°
Drops below altitude 10° 21:30:03 10° 112° (ESE) 1,782 6.4 -29.9°
Sets 21:32:47 0° 131° (SE) 2,672 7.7 -29.7°
